La Ceiba, Honduras

3:48 PM CST on August 17, 2017 (GMT -0600)
Goloson International

Weather History for MHLC - November, 2012

Change the Weather History Date:

Thursday, November 22, 2012

  Actual Average Record
Temperature  
Mean Temperature 76 °F -  
Max Temperature 83 °F 79 °F 87 °F (2011)
Min Temperature 68 °F 67 °F 64 °F (2006)
Cooling Degree Days 10    
Growing Degree Days 26 (Base 50)    
Moisture  
Dew Point 69 °F    
Average Humidity 90    
Maximum Humidity 100    
Minimum Humidity 66    
Precipitation  
Precipitation 0.91 in 0.65 in - ()
Sea Level Pressure  
Sea Level Pressure 30.03 in    
Wind  
Wind Speed 4 mph ()    
Max Wind Speed 8 mph    
Max Gust Speed -    
Visibility 4.5 miles    
Events Rain    
Averages and records for this station are not official NWS values.
T = Trace of Precipitation, MM = Missing Value Source: Averaged Metar Reports

Daily Weather History Graph

Daily Weather History Graph

Search for Another Location

Airport or City:

Trip Planner

Search our weather history database for the weather conditions in past years. The results will help you decide how hot, cold, wet, or windy it might be!

Date:

Astronomy

Nov. 22, 2012 Rise Set
Actual Time 5:53 AM CST 5:13 PM CST
Civil Twilight 5:31 AM CST 5:36 PM CST
Nautical Twilight 5:04 AM CST 6:02 PM CST
Astronomical Twilight 4:38 AM CST 6:28 PM CST
Moon 1:18 PM CST (11/22) 12:59 AM CST (11/22)
Length of Visible Light 12h 05m
Length of Day
11h 19m
Waxing Gibbous, 71% of the Moon is Illuminated
Nov 22
Waxing Gibbous
Nov 28
Full
Dec 6
Last Quarter
Dec 13
New
Dec 19
First Quarter

Hourly Weather History & Observations

Time (CST) Temp. Heat Index Dew Point Humidity Pressure Visibility Wind Dir Wind Speed Gust Speed Precip Events Conditions
12:00 AM 70 °F - 68 °F 92% 30.04 in 6 mi SW 6.9 mph - -   Partly Cloudy
12:00 AM 69.8 °F - 68.0 °F 94% 30.04 in 6.2 mi SW 6.9 mph - N/A   Mostly Cloudy
6:00 AM 69 °F - 68 °F 96% 30.04 in 1 mi SE 5.8 mph - - Rain Rain
6:00 AM 69.8 °F - 68.0 °F 94% 30.04 in 0.6 mi SE 5.8 mph - N/A Rain Rain
7:00 AM 69.8 °F - 68.0 °F 94% 30.04 in 0.6 mi South 4.6 mph - N/A Rain Rain
8:00 AM 69.8 °F - 68.0 °F 94% 30.06 in 0.6 mi SSW 3.5 mph - N/A Rain Light Rain
9:00 AM 70 °F - 69 °F 95% 30.09 in 2 mi Calm Calm - - Rain Light Rain
9:00 AM 69.8 °F - 69.8 °F 100% 30.06 in 2.5 mi Calm Calm - N/A Rain Light Rain
10:00 AM 73.4 °F - 71.6 °F 94% 30.06 in 6.2 mi SW 2.3 mph - N/A   Mostly Cloudy
11:00 AM 78.8 °F - 71.6 °F 78% 30.04 in 6.2 mi South 2.3 mph - N/A   Scattered Clouds
12:00 PM 82.4 °F 86.3 °F 69.8 °F 66% 30.04 in 6.2 mi North 4.6 mph - N/A   Scattered Clouds
1:00 PM 82.4 °F 86.3 °F 69.8 °F 66% 30.01 in 6.2 mi NE 8.1 mph - N/A   Scattered Clouds
2:00 PM 77.0 °F - 73.4 °F 89% 29.98 in 1.2 mi North 6.9 mph - N/A Rain Light Rain
3:00 PM 73 °F - 72 °F 94% 29.99 in 2 mi East 5.8 mph - - Rain Light Rain
3:00 PM 73.4 °F - 71.6 °F 94% 29.98 in 1.9 mi East 5.8 mph - N/A Rain Rain
4:00 PM 71.6 °F - 68.0 °F 88% 29.98 in 3.7 mi ESE 3.5 mph - N/A Rain Light Rain
5:00 PM 71.6 °F - 69.8 °F 94% 29.98 in 6.2 mi Calm Calm - N/A Rain Light Rain
6:00 PM 69 °F - 67 °F 89% 30.02 in 7 mi SW 5.8 mph - - Rain Light Rain
6:00 PM 68.0 °F - 66.2 °F 94% 30.01 in 6.2 mi SW 5.8 mph - N/A Rain Light Rain
7:00 PM 69.8 °F - 66.2 °F 88% 30.04 in 6.2 mi South 3.5 mph - N/A Rain Light Rain
8:00 PM 71.6 °F - 68.0 °F 88% 30.04 in 6.2 mi Calm Calm - N/A   Mostly Cloudy
9:00 PM 71 °F - 69 °F 89% 30.08 in 9 mi SSE 2.3 mph - -   Haze
9:00 PM 71.6 °F - 68.0 °F 88% 30.06 in 6.2 mi SSE 2.3 mph - N/A   Mostly Cloudy
10:00 PM 69.8 °F - 68.0 °F 94% 30.06 in 6.2 mi Calm Calm - N/A   Mostly Cloudy
11:00 PM 69.8 °F - 68.0 °F 94% 30.06 in 6.2 mi SSW 2.3 mph - N/A   Scattered Clouds